Temperature
20 19 19 19 19 19 18 18 18 18 17 17 17 17 17 17 17 17 16 16 16 16 16 16 16 16 16 15 15 15 15 15 15 15 15 15 15 15 15 15 14 14 14
20 19 19 19 19 18 18 18 18 18 17 17 17 17 17 17 16 16 16 16 16 16 16 16 16 15 15 15 15 15 15 15 15 15 14 14 14 14 14 14 14 14 14
19 19 19 19 19 19 18 18 18 18 17 17 17 17 17 16 16 16 16 16 16 16 15 15 15 15 15 15 15 15 15 14 14 14 14 14 14 14 14 14 14 14 14
20 19 19 19 19 19 18 18 18 17 17 17 17 17 16 16 16 16 16 16 16 15 15 15 15 15 15 15 14 14 14 14 14 14 14 14 14 14 14 14 14 14 14
20 19 19 19 18 18 18 18 17 17 17 17 17 17 16 16 16 16 16 15 15 15 15 15 15 15 14 14 14 14 14 14 14 14 14 14 14 14 14 14 14 14 14
19 19 19 18 18 18 18 18 17 17 17 17 17 16 16 16 16 16 15 15 15 15 15 15 15 14 14 14 14 14 14 14 14 14 14 14 14 13 13 13 13 13 13
19 19 19 18 18 18 18 17 17 17 17 16 16 16 16 16 16 15 15 15 15 15 14 14 14 14 14 14 14 14 14 14 13 13 13 14 13 13 13 13 13 13 13
19 18 18 18 18 17 17 17 17 16 16 16 16 16 16 15 15 15 15 15 15 14 14 14 14 14 14 14 14 14 14 14 14 13 13 13 13 13 13 13 13 13 13
18 18 18 17 17 17 17 16 16 16 16 16 16 15 15 15 15 15 14 14 14 14 14 14 14 13 13 13 13 13 13 13 13 13 13 13 13 13 12 12 12 12 12
18 18 17 17 17 16 16 16 16 16 15 15 15 15 15 15 14 14 14 14 14 14 14 13 13 13 13 13 13 13 13 13 13 13 13 13 12 12 12 12 12 12 12
18 17 17 16 16 16 16 16 15 15 15 15 15 14 14 14 14 14 14 14 13 13 13 13 13 13 13 13 12 12 12 12 12 12 12 12 12 12 12 12 12 12 12
17 17 17 16 16 16 15 15 15 15 15 14 14 14 14 14 14 14 14 13 13 13 13 13 13 12 12 12 12 12 12 12 12 12 12 12 12 12 12 12 12 12 12
17 17 16 16 16 15 15 15 15 15 14 14 14 14 14 14 13 13 13 13 13 13 13 12 12 12 12 12 12 12 12 11 11 11 11 11 11 12 11 11 11 11 11
16 16 16 15 15 15 15 14 14 14 14 14 14 14 13 13 13 13 13 13 12 12 12 12 12 12 12 12 11 11 11 11 11 11 11 11 11 11 11 11 11 11 11
16 15 15 15 15 14 14 14 14 14 14 13 13 13 13 13 13 13 12 12 12 12 12 12 12 12 12 11 11 11 11 11 11 11 11 11 11 11 11 11 11 11 11
15 15 15 14 14 14 14 14 13 13 13 13 13 13 13 12 12 12 12 12 12 11 11 11 11 11 11 11 11 11 11 11 11 11 11 10 11 11 11 10 10 10 10
14 14 14 14 14 14 13 13 13 13 13 13 13 12 12 12 12 12 12 12 11 11 11 11 11 11 11 11 11 11 10 10 10 10 10 10 10 10 10 10 10 10 10
14 14 13 13 13 13 13 13 13 13 13 13 12 12 12 12 12 12 11 11 11 11 11 11 10 10 10 10 10 10 10 10 10 10 10 10 10 10 10 10 10 10 10
13 13 13 13 13 13 13 12 13 12 12 12 12 12 12 12 12 11 11 11 11 11 11 10 10 10 10 10 10 10 10 9 9 10 9 9 9 9 9 9 10 10 10
13 13 13 13 12 12 12 12 12 12 12 12 12 12 12 11 11 11 11 11 11 10 10 10 10 10 10 10 10 9 9 9 9 9 9 9 9 9 9 9 9 9 9
13 13 12 12 12 12 12 12 12 12 12 12 12 12 11 11 11 11 11 11 10 10 10 10 10 9 9 9 9 9 9 9 9 9 9 9 9 9 9 9 9 9 9
12 12 12 12 12 12 12 11 11 12 12 11 11 11 11 11 11 11 10 10 10 10 10 10 9 9 9 9 9 9 9 9 9 9 9 9 9 9 9 9 9 9 9
12 12 12 12 11 11 11 11 11 11 11 11 11 11 11 11 10 10 10 10 10 9 9 9 9 9 9 9 8 8 8 8 9 8 8 8 9 9 9 9 9 9 9
12 12 11 11 11 11 11 11 11 11 11 11 11 11 10 10 10 10 10 9 9 9 9 9 9 9 9 9 9 8 8 8 8 8 8 8 8 8 8 9 9 9 9
11 11 11 11 11 11 11 11 11 11 11 10 10 10 10 10 10 10 9 9 9 9 9 9 9 9 9 8 8 8 8 8 8 8 8 8 8 8 8 8 8 8 8
11 11 11 11 11 11 10 10 10 10 10 10 10 10 10 10 10 9 9 9 9 9 9 9 8 8 8 8 8 8 8 8 8 8 8 8 8 8 8 8 8 8 8
Wind_Speed
4 3 3 4 4 4 4 4 4 3 2 2 3 2 2 2 2 2 2 2 2 1 1 1 1 0 0 0 1 1 1 2 3 2 2 1 1 1 1 1 3 3 3
5 4 4 4 4 4 4 4 3 3 3 3 3 3 2 2 2 3 3 2 2 2 2 1 1 1 1 0 1 1 1 2 2 2 2 1 1 1 1 1 1 2 3
6 5 4 3 4 4 4 3 3 3 3 3 3 3 3 3 3 3 3 3 3 3 3 3 2 2 2 1 1 1 1 1 2 2 2 1 1 1 0 1 1 1 2
6 5 4 4 4 5 4 4 4 3 3 3 3 4 4 3 3 3 3 3 3 3 3 3 3 3 4 3 2 3 2 1 1 1 1 1 1 1 0 1 1 1 2
6 5 5 4 4 3 3 3 3 3 4 4 4 3 3 3 3 3 3 3 3 3 3 3 4 5 5 4 3 3 3 2 2 2 2 1 1 1 2 2 2 2 2
6 5 5 4 3 3 3 3 3 3 3 4 4 4 3 3 4 4 3 3 3 3 3 3 3 4 5 5 5 5 5 5 4 4 3 3 4 3 2 2 2 1 2
5 5 4 4 4 3 3 3 3 3 3 3 4 4 4 4 4 4 4 3 3 3 3 3 3 3 3 3 4 4 5 6 7 6 6 6 5 5 4 3 3 3 4
4 4 4 4 4 3 2 2 3 2 3 3 3 4 4 4 4 4 4 3 3 3 3 3 3 3 3 2 3 3 4 5 5 5 6 6 6 5 5 4 4 3 2
4 4 4 4 4 3 3 3 2 2 2 3 3 3 3 4 4 4 3 2 2 3 3 3 3 4 4 3 2 3 4 4 5 5 5 4 4 4 4 2 2 2 3
4 4 4 4 4 4 4 3 2 2 2 2 2 2 3 4 4 4 4 2 3 3 3 3 4 4 4 3 3 3 4 4 3 3 2 2 2 3 5 5 4 4 3
3 3 3 4 5 5 4 2 2 2 1 1 1 2 2 3 4 4 4 3 3 3 3 3 3 4 4 4 4 4 5 4 3 2 3 3 2 2 3 4 5 5 4
3 4 4 4 4 3 3 2 2 2 2 1 1 2 2 2 2 2 3 3 3 3 3 3 3 3 3 3 2 2 3 2 1 2 2 3 3 3 4 4 5 6 6
3 3 3 3 2 3 3 3 2 2 2 2 1 1 2 2 1 2 2 2 3 2 3 3 3 3 2 1 2 1 1 1 1 2 3 4 4 4 3 3 2 3 4
4 3 2 3 2 2 2 3 3 3 2 2 2 2 2 1 1 1 1 1 1 1 1 1 1 1 0 0 1 1 1 1 2 3 3 4 3 3 2 2 2 2 2
3 2 2 2 2 2 1 2 3 3 4 4 3 3 3 3 3 3 2 1 1 2 1 0 1 1 1 1 1 1 1 1 2 2 3 3 3 2 2 2 2 2 2
3 2 2 2 2 2 2 1 2 1 2 3 4 4 3 4 3 2 2 3 3 3 2 1 2 2 2 2 2 2 2 2 3 3 3 3 3 3 2 2 2 2 3
3 2 2 2 2 2 2 2 0 2 1 1 2 3 4 3 3 3 2 1 1 3 2 2 3 3 3 3 3 3 3 3 3 3 3 3 3 3 3 3 2 3 3
3 2 2 2 2 3 2 2 2 2 1 1 1 1 2 2 2 3 2 2 1 1 2 3 3 3 4 3 3 3 3 3 3 3 3 3 3 3 3 3 3 4 4
2 2 2 2 2 2 2 2 2 2 2 1 1 2 1 0 0 1 2 1 2 2 3 3 3 3 3 3 3 3 3 3 3 3 3 3 3 3 4 4 4 4 4
2 2 2 2 2 2 2 2 2 2 2 2 2 2 1 1 0 1 1 2 2 3 3 3 3 3 3 3 3 3 3 3 4 4 4 4 4 4 4 5 4 4 5
2 2 2 2 2 2 2 3 3 3 3 3 3 3 3 2 3 3 3 3 3 4 4 4 4 4 4 3 3 4 4 4 4 4 4 4 4 4 4 5 5 5 4
2 2 2 3 2 2 3 3 3 3 3 3 3 2 4 3 3 3 3 3 4 4 4 3 3 3 3 3 3 4 4 5 5 4 4 5 4 4 4 4 4 4 4
3 3 2 2 2 3 3 3 3 3 3 3 3 2 2 3 3 3 3 3 3 3 3 4 4 4 4 4 4 4 5 5 5 5 5 5 4 4 4 5 5 5 5
3 3 3 2 2 3 3 3 3 3 3 3 3 3 3 3 3 4 4 3 3 3 3 3 4 5 6 5 4 4 5 5 5 5 6 5 5 4 4 5 5 5 5
3 3 3 3 3 3 3 3 3 3 3 3 3 3 3 3 3 3 3 3 4 4 4 4 4 4 6 6 5 5 5 6 5 5 4 4 5 5 5 5 5 4 4
3 3 3 3 2 2 2 3 3 3 3 3 3 3 3 3 3 3 3 3 4 4 4 4 4 5 5 5 5 5 5 5 5 5 4 4 4 5 4 4 5 4 4
Wind_Direction
182 190 196 197 192 185 193 204 208 210 194 190 188 182 182 184 179 168 184 174 170 205 220 177 245 239 141 196 152 153 178 190 225 264 256 275 254 278 293 240 237 241 246
184 184 191 184 175 184 199 207 202 201 200 196 188 186 197 197 192 187 202 196 192 210 227 209 242 197 176 207 164 186 207 202 198 245 266 269 258 262 275 264 278 257 252
177 176 173 175 181 194 208 208 204 200 202 197 189 196 203 205 205 209 204 208 213 220 222 218 231 202 220 228 210 211 229 222 200 206 255 263 274 292 291 279 296 293 268
170 166 172 196 201 201 200 202 207 204 200 200 200 204 209 211 209 214 208 213 222 231 231 230 231 220 225 225 223 217 210 194 186 206 243 287 272 277 220 259 290 285 274
165 168 184 196 198 197 196 202 203 201 202 196 194 200 210 212 219 215 211 218 225 242 251 247 243 235 231 225 227 217 203 202 207 217 241 257 261 250 235 230 243 264 259
165 175 179 179 187 198 203 200 198 197 200 190 192 195 213 229 224 213 207 217 224 234 255 266 261 249 248 239 235 222 203 203 215 220 231 236 237 233 236 227 218 228 263
164 171 171 183 197 209 205 190 200 204 197 200 204 200 217 230 229 225 218 212 224 242 255 266 276 273 251 250 251 240 231 223 215 214 228 236 232 221 211 225 223 223 239
163 174 176 186 194 194 186 200 212 210 212 222 220 217 229 244 235 229 219 211 222 239 247 247 254 268 261 246 253 259 257 249 236 226 231 238 239 224 212 217 226 237 262
171 182 185 186 185 188 201 215 218 207 227 228 222 221 231 248 239 225 208 211 234 253 255 254 249 251 254 226 220 255 274 274 260 242 234 237 226 211 197 187 200 222 262
196 194 188 184 183 194 206 210 207 197 223 220 239 236 234 248 240 221 206 211 241 263 275 273 255 247 245 216 213 229 258 272 277 276 270 269 248 212 195 199 205 217 245
192 169 177 194 196 195 191 192 181 178 194 218 254 275 261 253 249 230 211 209 227 249 268 279 275 258 242 234 223 234 251 261 266 261 261 263 263 245 225 218 212 214 228
165 162 176 194 204 193 176 179 172 172 185 218 241 292 304 289 260 245 222 224 217 224 252 264 267 262 251 245 236 246 246 248 262 262 265 267 266 263 259 250 232 227 232
155 167 180 185 196 181 177 182 180 175 187 214 219 257 294 307 299 260 228 231 222 227 255 257 261 264 262 261 255 240 218 219 232 248 260 266 261 261 265 272 271 253 255
162 168 168 173 186 183 175 179 184 193 198 208 215 240 272 297 299 294 261 247 257 248 275 287 273 255 205 291 297 274 246 237 233 249 265 274 275 269 263 262 259 262 273
155 160 166 173 171 171 178 200 206 213 206 204 218 219 227 258 263 243 226 238 236 230 209 267 286 313 325 308 297 284 272 260 256 258 264 278 280 274 276 272 242 230 246
154 159 166 170 169 164 152 39 7 245 222 214 211 210 227 231 245 250 246 254 245 190 159 216 243 239 240 251 262 277 270 259 257 257 260 266 271 271 272 275 251 240 247
162 170 174 174 173 175 174 171 212 0 21 238 219 214 213 224 247 263 258 248 217 167 181 238 246 244 245 248 251 252 260 266 263 256 254 257 262 262 257 257 253 255 260
151 164 180 196 190 187 193 198 192 192 238 319 316 256 240 238 255 264 222 128 96 177 228 243 250 251 251 251 253 255 260 264 257 259 259 259 257 255 255 255 251 255 259
166 180 198 213 202 190 192 192 193 194 204 237 288 314 309 258 278 271 163 177 220 240 246 254 256 255 257 255 252 252 252 255 259 254 257 261 259 257 259 259 256 253 255
180 194 201 197 203 190 192 195 197 198 214 232 243 253 252 95 277 257 215 229 241 254 259 258 259 254 254 254 251 248 252 256 258 255 257 260 259 253 256 261 258 256 255
182 181 181 190 204 206 206 211 213 215 222 231 245 246 212 218 234 243 245 244 246 253 256 258 259 256 255 255 253 251 254 258 256 254 258 263 261 258 255 255 255 255 260
181 192 198 207 213 214 218 219 217 220 226 234 254 258 219 224 236 246 249 249 247 247 247 246 250 252 248 245 245 248 251 256 260 258 258 261 261 260 260 259 259 260 260
182 193 206 215 220 218 221 222 220 223 230 235 237 237 230 235 243 247 247 245 243 245 240 237 247 256 255 253 249 243 246 252 253 250 252 256 259 259 260 260 260 264 255
191 200 206 216 227 229 229 232 231 230 231 238 241 237 239 243 250 253 250 247 245 246 243 239 244 251 259 260 259 256 254 258 259 251 247 249 256 262 260 259 260 256 252
203 209 211 218 229 236 236 235 231 231 235 240 242 244 250 252 250 248 248 247 248 250 252 253 253 255 259 260 261 264 264 261 262 260 252 249 256 260 261 260 259 257 253
222 224 222 218 222 225 225 232 239 237 238 243 243 247 251 249 247 247 246 247 250 252 254 255 257 259 260 260 263 263 259 257 257 257 250 245 251 257 257 254 256 253 253
Height
1509 1512 1513 1515 1516 1517 1518 1519 1520 1521 1521 1521 1522 1522 1522 1523 1523 1523 1523 1523 1523 1523 1523 1523 1523 1523 1522 1522 1522 1522 1522 1522 1521 1521 1522 1522 1522 1522 1522 1522 1522 1522 1522
1507 1510 1511 1513 1514 1515 1516 1517 1518 1518 1519 1519 1520 1520 1520 1521 1521 1521 1521 1522 1522 1521 1521 1521 1521 1521 1521 1520 1520 1520 1520 1520 1519 1519 1519 1519 1520 1520 1520 1520 1520 1520 1521
1506 1507 1509 1511 1512 1513 1514 1515 1516 1516 1517 1517 1518 1518 1518 1519 1519 1519 1519 1519 1519 1519 1519 1519 1519 1519 1519 1518 1518 1517 1517 1517 1517 1517 1517 1517 1517 1517 1517 1517 1517 1518 1518
1503 1505 1507 1508 1510 1511 1512 1513 1513 1514 1514 1515 1515 1516 1516 1517 1517 1517 1517 1517 1517 1517 1517 1517 1517 1517 1516 1516 1516 1515 1515 1515 1515 1515 1514 1514 1515 1515 1515 1514 1515 1515 1516
1501 1502 1504 1506 1508 1509 1510 1510 1510 1511 1511 1512 1513 1513 1514 1514 1514 1514 1514 1514 1514 1514 1514 1514 1514 1514 1514 1513 1513 1513 1513 1512 1512 1512 1512 1512 1512 1512 1512 1512 1512 1512 1513
1499 1500 1502 1504 1506 1506 1507 1507 1508 1508 1509 1509 1509 1510 1511 1511 1511 1511 1511 1511 1511 1511 1511 1511 1511 1511 1511 1511 1511 1510 1510 1510 1509 1509 1509 1508 1508 1508 1509 1509 1509 1509 1509
1496 1498 1499 1501 1502 1503 1504 1504 1504 1505 1506 1506 1506 1507 1507 1507 1508 1508 1508 1508 1508 1508 1508 1508 1508 1508 1508 1507 1507 1507 1507 1506 1507 1506 1506 1505 1505 1505 1505 1505 1505 1506 1506
1493 1494 1496 1498 1499 1500 1501 1501 1502 1502 1503 1503 1503 1503 1504 1504 1504 1505 1505 1505 1504 1504 1504 1504 1504 1503 1504 1504 1503 1503 1503 1503 1503 1502 1502 1502 1502 1502 1502 1503 1503 1503 1503
1490 1492 1493 1495 1495 1496 1497 1498 1499 1499 1499 1500 1500 1500 1500 1500 1501 1501 1501 1501 1500 1500 1500 1500 1500 1500 1500 1500 1500 1499 1499 1499 1499 1499 1498 1498 1498 1498 1499 1499 1499 1499 1499
1488 1489 1490 1492 1493 1493 1494 1495 1496 1496 1496 1497 1497 1497 1497 1497 1497 1497 1497 1497 1496 1496 1496 1496 1496 1496 1496 1496 1496 1496 1495 1495 1495 1495 1495 1494 1494 1494 1495 1495 1495 1495 1495
1486 1487 1488 1490 1490 1491 1492 1492 1493 1493 1493 1493 1493 1494 1494 1494 1494 1494 1494 1494 1493 1493 1492 1492 1492 1492 1493 1493 1493 1492 1492 1492 1491 1491 1491 1491 1491 1491 1491 1491 1491 1492 1492
1483 1484 1486 1487 1488 1488 1489 1489 1489 1490 1490 1490 1491 1491 1491 1491 1491 1491 1490 1490 1490 1490 1489 1489 1489 1489 1489 1490 1489 1489 1489 1489 1488 1488 1487 1487 1487 1487 1487 1487 1488 1488 1488
1480 1481 1483 1484 1486 1486 1486 1486 1487 1487 1487 1488 1488 1487 1487 1487 1487 1488 1487 1487 1487 1486 1486 1486 1486 1486 1486 1486 1486 1486 1485 1485 1485 1484 1484 1483 1483 1483 1483 1483 1483 1484 1484
1478 1479 1480 1481 1482 1483 1483 1483 1484 1484 1484 1485 1484 1484 1484 1484 1484 1485 1484 1484 1484 1484 1483 1483 1483 1483 1483 1482 1482 1482 1482 1482 1481 1481 1481 1480 1480 1480 1480 1479 1479 1479 1480
1475 1476 1477 1478 1479 1479 1480 1481 1481 1481 1482 1482 1481 1481 1481 1481 1481 1482 1481 1481 1481 1481 1480 1480 1480 1480 1479 1479 1479 1479 1478 1478 1478 1478 1477 1477 1476 1476 1476 1476 1476 1476 1476
1473 1474 1475 1475 1476 1476 1477 1477 1478 1478 1479 1479 1479 1479 1479 1479 1479 1479 1478 1478 1478 1478 1478 1477 1477 1476 1476 1476 1476 1476 1475 1475 1475 1474 1474 1473 1473 1472 1472 1472 1472 1472 1472
1471 1471 1472 1473 1473 1473 1474 1474 1474 1475 1476 1476 1476 1476 1476 1476 1476 1476 1475 1475 1475 1475 1474 1474 1474 1473 1473 1473 1473 1472 1472 1472 1472 1471 1470 1470 1470 1469 1469 1469 1469 1469 1469
1469 1469 1470 1470 1470 1470 1471 1471 1472 1472 1472 1473 1473 1474 1474 1474 1473 1473 1473 1472 1472 1472 1471 1471 1470 1470 1470 1469 1469 1469 1469 1468 1468 1468 1467 1467 1466 1466 1465 1465 1465 1465 1465
1466 1467 1468 1469 1468 1468 1468 1469 1469 1470 1469 1470 1470 1471 1471 1471 1470 1470 1470 1469 1468 1468 1468 1467 1467 1466 1466 1466 1466 1465 1465 1465 1464 1464 1464 1463 1463 1462 1462 1461 1461 1461 1462
1464 1465 1465 1466 1466 1465 1466 1466 1467 1467 1467 1467 1467 1467 1467 1467 1467 1467 1467 1466 1465 1465 1464 1464 1463 1463 1462 1462 1462 1461 1461 1461 1460 1460 1460 1460 1459 1459 1458 1458 1458 1458 1458
1461 1461 1462 1463 1463 1463 1463 1464 1464 1464 1464 1464 1464 1464 1464 1464 1464 1463 1463 1463 1462 1461 1461 1460 1460 1459 1458 1458 1457 1457 1457 1457 1457 1456 1456 1456 1456 1455 1455 1454 1454 1454 1454
1458 1459 1459 1460 1460 1460 1461 1461 1461 1461 1461 1461 1461 1461 1461 1461 1460 1460 1459 1459 1458 1458 1457 1457 1456 1455 1455 1454 1454 1453 1453 1453 1453 1452 1452 1452 1452 1452 1451 1451 1451 1450 1450
1456 1456 1457 1457 1457 1458 1458 1458 1458 1458 1458 1458 1458 1458 1458 1457 1457 1456 1455 1455 1454 1454 1453 1453 1452 1451 1451 1451 1450 1450 1449 1449 1449 1448 1448 1448 1448 1447 1447 1447 1447 1446 1446
1453 1454 1454 1454 1454 1455 1454 1455 1455 1455 1455 1455 1454 1454 1454 1454 1453 1452 1452 1451 1451 1450 1450 1449 1448 1448 1447 1447 1446 1446 1445 1445 1445 1444 1444 1444 1444 1443 1443 1443 1443 1442 1442
1451 1451 1451 1451 1451 1451 1451 1451 1451 1451 1451 1451 1451 1451 1450 1450 1449 1449 1448 1448 1447 1446 1446 1445 1444 1444 1443 1443 1442 1442 1441 1441 1440 1440 1440 1440 1439 1439 1439 1439 1438 1438 1438
1448 1448 1448 1448 1448 1448 1448 1448 1447 1448 1448 1448 1447 1447 1447 1446 1446 1445 1445 1444 1443 1442 1441 1441 1440 1440 1439 1439 1438 1438 1437 1436 1436 1436 1436 1435 1435 1435 1434 1434 1434 1434 1434